TimeEDT,TemperatureF,Dew PointF,Humidity,Sea Level PressureIn,VisibilityMPH,Wind Direction,Wind SpeedMPH,Gust SpeedMPH,PrecipitationIn,Events,Conditions,WindDirDegrees,DateUTC
12:53 AM,57.9,57.0,97,29.97,5.0,SSW,5.8,-,N/A,,Clear,210,2013-10-01 04:53:00
1:53 AM,57.0,55.9,96,29.97,4.0,SSW,5.8,-,N/A,,Clear,200,2013-10-01 05:53:00
2:53 AM,57.0,55.9,96,29.98,4.0,SSW,5.8,-,N/A,,Clear,200,2013-10-01 06:53:00
3:53 AM,57.0,55.9,96,29.98,3.0,SSW,5.8,-,N/A,,Clear,200,2013-10-01 07:53:00
4:36 AM,57.2,55.4,94,30.00,2.0,SSW,3.5,-,N/A,,Clear,210,2013-10-01 08:36:00
4:53 AM,57.0,55.9,96,29.99,2.0,South,3.5,-,N/A,,Clear,190,2013-10-01 08:53:00
5:08 AM,57.2,55.4,94,30.01,3.0,South,4.6,-,N/A,,Clear,180,2013-10-01 09:08:00
5:16 AM,55.4,55.4,100,30.01,2.5,South,4.6,-,N/A,,Clear,170,2013-10-01 09:16:00
5:37 AM,55.4,55.4,100,30.02,1.5,South,4.6,-,N/A,,Clear,170,2013-10-01 09:37:00
5:48 AM,55.4,55.4,100,30.02,0.8,South,4.6,-,N/A,,Clear,180,2013-10-01 09:48:00
5:53 AM,55.0,54.0,96,30.01,1.0,South,4.6,-,N/A,,Mist,180,2013-10-01 09:53:00
5:57 AM,55.4,53.6,94,30.02,0.5,South,3.5,-,0.01,Fog,Fog,180,2013-10-01 09:57:00
6:05 AM,55.4,53.6,94,30.02,0.2,South,3.5,-,0.01,Fog,Fog,170,2013-10-01 10:05:00
6:33 AM,55.4,55.4,100,30.03,1.0,South,3.5,-,0.01,,Mist,170,2013-10-01 10:33:00
6:44 AM,55.4,55.4,100,30.03,1.0,South,4.6,-,0.01,,Mist,170,2013-10-01 10:44:00
6:51 AM,53.6,53.6,100,30.03,0.8,South,4.6,-,0.01,,Clear,170,2013-10-01 10:51:00
6:53 AM,55.0,54.0,96,30.01,0.8,South,4.6,-,0.01,,Clear,170,2013-10-01 10:53:00
7:06 AM,53.6,53.6,100,30.03,1.5,SSE,5.8,-,N/A,,Clear,160,2013-10-01 11:06:00
7:53 AM,55.9,55.0,97,30.03,1.2,South,4.6,-,N/A,,Clear,170,2013-10-01 11:53:00
8:42 AM,59.0,59.0,100,30.05,2.0,Calm,Calm,-,N/A,,Clear,0,2013-10-01 12:42:00
8:53 AM,60.1,59.0,96,30.04,2.0,Calm,Calm,-,N/A,,Clear,0,2013-10-01 12:53:00
9:31 AM,64.4,60.8,88,30.06,3.0,SSW,4.6,-,N/A,,Clear,210,2013-10-01 13:31:00
9:53 AM,66.0,62.1,87,30.04,4.0,SW,6.9,-,N/A,,Scattered Clouds,230,2013-10-01 13:53:00
10:53 AM,68.0,63.0,84,30.04,7.0,SW,10.4,-,N/A,,Overcast,220,2013-10-01 14:53:00
11:45 AM,69.8,60.8,73,30.05,10.0,WSW,9.2,-,N/A,,Overcast,250,2013-10-01 15:45:00
11:53 AM,70.0,62.1,76,30.03,10.0,WSW,9.2,-,N/A,,Overcast,250,2013-10-01 15:53:00
12:00 PM,69.8,62.6,78,30.04,10.0,WSW,9.2,-,N/A,,Overcast,240,2013-10-01 16:00:00
12:53 PM,75.0,59.0,57,30.01,10.0,SSW,13.8,20.7,N/A,,Scattered Clouds,210,2013-10-01 16:53:00
1:53 PM,73.9,57.9,57,30.00,10.0,SW,10.4,20.7,N/A,,Mostly Cloudy,230,2013-10-01 17:53:00
2:53 PM,75.0,57.9,55,29.99,10.0,SW,13.8,21.9,N/A,,Mostly Cloudy,230,2013-10-01 18:53:00
3:53 PM,75.0,57.0,53,29.98,10.0,SW,13.8,-,N/A,,Mostly Cloudy,230,2013-10-01 19:53:00
4:53 PM,75.9,57.0,52,29.97,10.0,SW,12.7,23.0,N/A,,Partly Cloudy,230,2013-10-01 20:53:00
5:53 PM,75.0,57.9,55,29.98,10.0,SW,9.2,-,N/A,,Clear,230,2013-10-01 21:53:00
6:53 PM,72.0,59.0,64,29.97,10.0,SW,8.1,-,N/A,,Clear,230,2013-10-01 22:53:00
7:53 PM,64.9,57.9,78,29.98,10.0,SW,4.6,-,N/A,,Clear,220,2013-10-01 23:53:00
8:53 PM,62.1,57.9,86,29.99,10.0,SSW,5.8,-,N/A,,Clear,210,2013-10-02 00:53:00
9:53 PM,60.1,57.0,90,29.99,10.0,SSW,6.9,-,N/A,,Clear,200,2013-10-02 01:53:00
10:53 PM,59.0,57.0,93,29.99,10.0,SSW,6.9,-,N/A,,Clear,200,2013-10-02 02:53:00
11:53 PM,61.0,57.0,87,29.99,10.0,SSW,5.8,-,N/A,,Clear,200,2013-10-02 03:53:00